Weather History for Christchurch, New Zealand

Change the Weather History Date:

Sunday, November 3, 2013

  Actual Average Record
Temperature  
Mean Temperature 51 °F -  
Max Temperature 60 °F 62 °F - ()
Min Temperature 42 °F 44 °F - ()
Degree Days  
Heating Degree Days 14    
Growing Degree Days 1 (Base 50)    
Moisture  
Dew Point 47 °F    
Average Humidity 80    
Maximum Humidity 94    
Minimum Humidity 59    
Precipitation  
Precipitation 0.00 in - - ()
Sea Level Pressure  
Sea Level Pressure 29.94 in    
Wind  
Wind Speed 9 mph ()    
Max Wind Speed 26 mph    
Max Gust Speed -    
Visibility 6.2 miles    
Events      
T = Trace of Precipitation, MM = Missing Value Source: Averaged Metar Reports

Daily Weather History Graph

Daily Weather History Graph

Search for Another Location

Airport:

Trip Planner

Search our weather history database for the weather conditions in past years. The results will help you decide how hot, cold, wet, or windy it might be!

Date:

Astronomy

Nov. 03, 2013 Rise Set
Actual Time 6:09 AM NZDT 8:17 PM NZDT
Civil Twilight 5:38 AM NZDT 8:49 PM NZDT
Nautical Twilight 4:59 AM NZDT 9:27 PM NZDT
Astronomical Twilight 4:17 AM NZDT 10:10 PM NZDT
Moon 5:44 AM NZDT (11/3) 7:54 PM NZDT (11/3)
Length of Visible Light 15h 10m
Length of Day
14h 08m
Waning Crescent, 0% of the Moon is Illuminated
Nov 3
Waning Crescent
Nov 4
New
Nov 10
First Quarter
Nov 18
Full
Nov 26
Last Quarter

Hourly Weather History & Observations

Time (NZDT) Temp. Windchill Dew Point Humidity Pressure Visibility Wind Dir Wind Speed Gust Speed Precip Events Conditions
12:00 AM 48.2 °F - 42.8 °F 82% 29.86 in 6.2 mi North 1.2 mph - N/A   Unknown
12:30 AM 44.6 °F - 41.0 °F 87% 29.86 in 6.2 mi NW 2.3 mph - N/A   Unknown
1:00 AM 42.8 °F 41.1 °F 39.2 °F 87% 29.89 in 6.2 mi SW 3.5 mph - N/A   Unknown
1:30 AM 44.6 °F 43.1 °F 42.8 °F 93% 29.89 in 6.2 mi WSW 3.5 mph - N/A   Unknown
2:00 AM 46.4 °F 41.5 °F 42.8 °F 87% 29.89 in 6.2 mi SW 10.4 mph - N/A   Unknown
2:30 AM 48.2 °F - 42.8 °F 82% 29.89 in 6.2 mi WSW 4.6 mph - N/A   Unknown
3:00 AM 48.2 °F - 46.4 °F 93% 29.92 in 6.2 mi West 5.8 mph - N/A   Unknown
3:30 AM 50.0 °F - 46.4 °F 87% 29.92 in 6.2 mi WSW 8.1 mph - N/A   Mostly Cloudy
4:00 AM 50.0 °F - 46.4 °F 87% 29.95 in 6.2 mi WSW 4.6 mph - N/A   Overcast
4:30 AM 50.0 °F - 46.4 °F 87% 29.95 in 6.2 mi West 5.8 mph - N/A   Mostly Cloudy
5:00 AM 50.0 °F - 44.6 °F 82% 29.95 in 6.2 mi West 5.8 mph - N/A   Mostly Cloudy
5:30 AM 48.2 °F - 44.6 °F 87% 29.95 in 6.2 mi WNW 4.6 mph - N/A   Mostly Cloudy
6:00 AM 48.2 °F - 46.4 °F 93% 29.98 in 6.2 mi North 4.6 mph - N/A   Overcast
6:30 AM 48.2 °F - 44.6 °F 87% 29.98 in 6.2 mi North 3.5 mph - N/A   Mostly Cloudy
7:00 AM 48.2 °F - 44.6 °F 87% 29.98 in 6.2 mi North 5.8 mph - N/A   Mostly Cloudy
7:30 AM 50.0 °F - 46.4 °F 87% 29.98 in 6.2 mi North 5.8 mph - N/A   Mostly Cloudy
8:00 AM 51.8 °F - 48.2 °F 88% 30.01 in 6.2 mi North 4.6 mph - N/A   Mostly Cloudy
8:30 AM 51.8 °F - 48.2 °F 88% 30.01 in 6.2 mi NNE 4.6 mph - N/A   Mostly Cloudy
9:00 AM 51.8 °F - 48.2 °F 88% 30.01 in 6.2 mi NNE 8.1 mph - N/A   Overcast
9:30 AM 53.6 °F - 48.2 °F 82% 30.01 in 6.2 mi NE 9.2 mph - N/A   Overcast
10:00 AM 53.6 °F - 44.6 °F 72% 30.01 in 6.2 mi NE 12.7 mph - N/A   Overcast
10:30 AM 55.4 °F - 46.4 °F 72% 30.01 in 6.2 mi ENE 13.8 mph - N/A   Overcast
11:00 AM 57.2 °F - 48.2 °F 72% 30.01 in 6.2 mi NE 15.0 mph - N/A   Mostly Cloudy
11:30 AM 59.0 °F - 46.4 °F 63% 30.01 in 6.2 mi ENE 15.0 mph - N/A   Scattered Clouds
12:00 PM 59.0 °F - 48.2 °F 67% 29.98 in 6.2 mi ENE 17.3 mph - N/A   Partly Cloudy
12:30 PM 59.0 °F - 48.2 °F 67% 29.98 in 6.2 mi ENE 17.3 mph - N/A   Partly Cloudy
1:00 PM 59.0 °F - 46.4 °F 63% 29.98 in 6.2 mi ENE 19.6 mph - N/A   Partly Cloudy
1:30 PM 59.0 °F - 46.4 °F 63% 29.98 in 6.2 mi ENE 20.7 mph - N/A   Unknown
2:00 PM 59.0 °F - 48.2 °F 67% 29.98 in 6.2 mi ENE 21.9 mph - N/A   Unknown
2:30 PM 60.8 °F - 46.4 °F 59% 29.95 in 6.2 mi ENE 21.9 mph - N/A   Unknown
3:00 PM 59.0 °F - 48.2 °F 67% 29.95 in 6.2 mi ENE 23.0 mph - N/A   Unknown
3:30 PM 59.0 °F - 48.2 °F 67% 29.95 in 6.2 mi ENE 25.3 mph - N/A   Unknown
4:00 PM 59.0 °F - 46.4 °F 63% 29.92 in 6.2 mi ENE 26.5 mph - N/A   Unknown
4:30 PM 59.0 °F - 46.4 °F 63% 29.92 in 6.2 mi ENE 25.3 mph - N/A   Unknown
5:00 PM 59.0 °F - 46.4 °F 63% 29.92 in 6.2 mi ENE 24.2 mph - N/A   Unknown
5:30 PM 57.2 °F - 46.4 °F 67% 29.92 in 6.2 mi ENE 24.2 mph - N/A   Unknown
6:00 PM 57.2 °F - 46.4 °F 67% 29.92 in 6.2 mi ENE 21.9 mph - N/A   Unknown
6:30 PM 57.2 °F - 48.2 °F 72% 29.89 in 6.2 mi ENE 23.0 mph - N/A   Unknown
7:00 PM 55.4 °F - 48.2 °F 77% 29.89 in 6.2 mi East 20.7 mph - N/A   Unknown
7:30 PM 55.4 °F - 48.2 °F 77% 29.89 in 6.2 mi East 20.7 mph - N/A   Unknown
8:00 PM 53.6 °F - 50.0 °F 88% 29.89 in 6.2 mi East 18.4 mph - N/A   Mostly Cloudy
8:30 PM 53.6 °F - 50.0 °F 88% 29.89 in 6.2 mi ENE 16.1 mph - N/A   Partly Cloudy
9:00 PM 53.6 °F - 50.0 °F 88% 29.89 in 6.2 mi East 15.0 mph - N/A   Partly Cloudy
9:30 PM 53.6 °F - 51.8 °F 94% 29.89 in 6.2 mi East 13.8 mph - N/A   Unknown
10:00 PM 53.6 °F - 51.8 °F 94% 29.89 in 6.2 mi East 12.7 mph - N/A   Partly Cloudy
10:30 PM 53.6 °F - 51.8 °F 94% 29.89 in 6.2 mi East 15.0 mph - N/A   Mostly Cloudy
11:00 PM 53.6 °F - 51.8 °F 94% 29.89 in 6.2 mi East 13.8 mph - N/A   Scattered Clouds
11:30 PM 53.6 °F - 51.8 °F 94% 29.89 in 6.2 mi East 11.5 mph - N/A   Partly Cloudy